Wind_Speed
30 31 31 32 33 35 36 36 37 38 39 40 41 41 41 42 42 43 43 43 43 42 42 42 42 42 42 42 42 43 43 44 45 46 47 48 48 48 48 47 47 47 47 47
30 31 31 32 32 34 35 36 37 38 39 40 41 41 41 41 42 42 42 42 42 42 42 41 42 42 42 42 42 42 43 44 45 46 47 48 48 49 49 49 48 48 48 48
29 29 31 32 32 33 34 35 36 37 38 40 41 42 41 41 41 41 41 41 41 41 41 41 41 41 42 42 42 43 43 44 45 46 47 48 49 49 49 49 49 50 50 50
28 29 29 31 32 33 34 34 35 36 37 39 40 42 40 40 40 40 40 41 41 41 41 41 41 41 42 42 43 43 44 45 45 46 47 48 49 49 49 50 50 51 51 52
28 28 29 30 30 32 33 33 34 35 37 38 39 41 40 39 39 38 39 40 40 41 41 40 41 41 42 42 43 44 44 45 46 47 48 48 49 49 50 50 51 51 52 52
28 28 28 29 30 31 32 33 35 35 36 37 36 38 39 37 37 37 38 38 39 40 41 41 41 41 42 43 43 44 45 46 47 47 48 49 50 50 51 52 52 53 53 54
28 28 28 29 29 30 31 31 33 34 35 36 35 37 36 34 35 36 37 38 39 39 40 41 41 41 41 42 43 43 44 46 47 48 48 49 50 51 52 52 53 53 54 55
28 29 28 28 29 29 29 29 31 33 34 35 35 35 34 34 34 34 36 37 38 39 39 40 41 41 42 42 43 43 44 45 46 47 49 50 51 51 52 53 54 54 54 54
27 28 28 28 28 28 29 29 29 31 32 33 34 33 32 32 33 34 35 36 38 39 40 40 41 41 42 43 43 44 45 46 47 48 49 50 51 52 52 53 54 53 54 55
27 28 28 27 27 27 27 27 28 29 31 32 32 31 30 29 30 31 33 35 36 38 39 40 41 41 42 43 44 45 46 47 47 48 49 50 51 52 52 53 53 53 53 54
26 27 26 26 26 26 26 27 28 29 30 30 31 30 28 28 30 31 31 33 34 36 37 38 40 41 42 43 44 44 46 47 48 49 50 51 51 51 51 52 53 53 53 53
25 26 26 25 25 26 26 27 27 28 29 29 30 29 28 29 29 30 31 32 33 34 35 37 38 40 40 42 42 44 45 46 47 49 49 50 50 50 50 51 52 52 52 53
24 25 25 25 25 25 26 27 28 28 29 29 29 28 28 29 29 30 31 31 31 32 34 36 37 39 39 41 42 43 44 45 47 48 49 50 50 50 49 49 50 51 51 52
24 24 25 26 26 25 25 26 27 28 29 29 28 27 27 28 29 29 29 30 31 32 33 34 36 37 38 39 40 41 42 44 45 47 48 48 49 49 49 49 49 49 50 51
23 24 24 25 25 25 25 25 26 27 28 29 27 27 26 28 29 29 29 30 31 31 32 33 33 35 36 37 38 40 41 42 43 45 46 47 48 48 48 48 48 49 50 50
22 22 22 23 24 25 25 24 24 26 27 27 27 26 26 27 28 28 29 30 30 29 30 31 32 32 33 34 36 37 39 40 41 42 44 44 45 46 46 46 45 46 47 49
22 22 22 22 23 25 24 23 24 25 26 27 26 24 26 27 27 27 28 28 28 29 29 30 30 31 31 31 33 34 36 37 38 39 40 41 43 43 43 44 43 43 44 46
22 23 23 23 23 24 23 22 23 24 24 25 24 24 25 26 27 27 27 28 28 28 28 29 29 30 31 31 32 32 33 34 35 36 37 37 38 39 40 40 40 41 42 42
23 23 23 24 24 23 22 22 23 23 22 23 24 25 26 26 27 28 28 27 28 28 28 28 28 29 29 30 30 30 31 33 33 34 34 34 35 36 37 37 37 38 39 40
23 23 24 24 24 24 22 22 23 23 23 23 24 25 26 27 27 27 27 28 28 29 29 28 28 29 29 29 29 30 31 31 32 33 33 33 33 34 34 34 35 35 36 36
23 23 23 24 24 24 23 23 23 23 23 23 24 24 26 27 27 26 27 28 28 29 29 29 29 29 29 30 30 30 30 31 31 31 32 32 32 32 32 33 34 34 35 35
22 22 23 24 24 23 23 23 24 24 24 24 23 24 24 25 25 26 27 27 27 28 28 28 29 29 29 29 29 29 28 29 29 30 30 31 31 31 32 32 33 34 34 34
22 22 23 23 23 23 23 23 23 23 23 23 23 23 23 24 25 25 26 26 27 27 27 28 27 27 27 27 28 28 28 28 27 28 29 29 30 30 31 31 32 32 32 33
23 23 23 23 23 23 23 23 23 23 23 23 23 23 24 24 24 24 24 25 25 26 26 26 25 25 26 26 27 27 27 26 26 27 27 28 29 29 30 31 31 32 32 33
22 23 23 23 23 24 24 24 23 23 23 23 23 23 23 24 24 23 22 22 24 25 25 25 25 25 26 26 26 25 24 24 25 25 25 26 27 27 28 29 30 30 31 31
22 23 22 22 23 24 24 24 24 24 24 24 23 24 24 24 23 23 22 23 23 24 24 24 24 24 24 23 23 23 22 23 23 23 24 25 26 26 27 27 27 28 29 29
Wind_Direction
257 257 257 257 257 256 255 255 255 255 255 255 255 255 255 255 255 255 255 255 255 256 256 256 256 256 256 255 254 252 252 252 251 250 249 249 250 250 252 252 252 252 252 253
259 258 259 258 258 257 257 256 256 257 256 256 256 256 256 256 256 256 256 256 256 256 256 257 257 256 255 255 254 253 252 251 251 250 250 250 250 251 252 253 253 253 252 252
264 262 260 259 259 259 259 258 259 259 258 258 258 256 256 256 256 256 255 256 255 256 256 256 257 256 255 255 255 254 253 252 252 251 251 251 251 252 252 253 253 253 253 253
264 262 261 260 259 260 259 259 260 261 260 259 259 259 257 257 257 256 256 255 255 255 256 256 256 255 255 255 255 255 253 253 254 253 253 252 252 252 253 253 254 254 254 254
264 264 263 262 262 261 260 260 261 262 262 261 260 260 258 257 257 257 256 255 255 255 255 256 256 256 256 256 256 256 255 255 254 254 254 253 253 253 253 254 254 254 254 254
265 265 264 264 264 263 261 260 261 261 261 261 261 262 261 259 258 257 256 256 256 256 256 256 256 257 257 257 257 258 257 256 255 255 254 254 253 254 254 254 255 255 254 254
265 266 266 265 264 263 262 262 263 261 260 261 261 262 263 261 260 259 258 257 257 258 258 258 257 257 257 257 258 258 258 257 256 255 254 253 254 255 255 255 255 255 255 254
267 268 268 267 266 264 262 263 264 264 264 263 263 263 264 263 261 261 260 260 260 259 259 259 259 258 258 258 258 259 259 259 257 256 255 255 254 255 256 256 256 255 255 255
269 268 269 269 267 264 262 261 262 264 264 265 265 265 264 263 263 263 262 262 261 261 260 260 260 259 259 259 259 260 260 259 258 257 257 257 257 257 257 257 257 256 256 256
269 268 267 266 264 261 261 261 261 263 266 267 267 266 266 265 266 267 265 263 262 262 262 261 261 260 260 260 260 261 261 260 259 258 258 258 258 259 258 258 257 257 256 256
267 267 266 264 261 259 259 259 260 262 264 268 270 270 269 269 269 270 268 267 266 265 264 263 262 262 262 262 261 261 261 260 259 259 259 259 259 260 260 259 257 256 256 256
266 265 264 263 262 259 258 258 258 262 265 267 271 272 272 272 272 272 270 269 269 268 266 265 263 263 263 263 262 261 261 260 259 259 259 260 260 260 260 259 257 256 255 255
267 266 265 264 262 261 259 257 258 261 264 267 270 273 273 274 274 273 272 271 271 270 269 268 267 265 264 264 264 262 261 260 259 259 259 260 260 260 260 260 258 257 255 255
267 267 266 266 265 264 263 260 259 262 264 268 271 273 274 275 275 275 275 274 274 274 273 271 270 268 266 265 264 264 263 263 262 261 260 261 260 261 260 261 259 258 256 256
265 267 267 267 266 264 263 263 262 263 267 269 271 272 273 275 275 275 275 275 275 276 277 276 273 271 269 267 265 265 264 265 264 263 262 261 260 261 260 259 259 258 257 256
266 267 267 266 266 265 264 264 264 265 267 269 270 270 271 274 275 274 275 276 277 278 278 278 277 275 272 269 268 267 266 267 266 265 264 262 261 261 260 259 258 257 257 257
265 268 269 267 266 267 265 265 268 270 269 269 270 271 272 274 277 278 278 279 280 279 280 280 279 278 276 273 271 270 270 269 267 266 265 263 261 260 260 259 257 257 258 258
267 269 269 267 267 269 270 268 270 272 271 269 270 272 274 276 277 279 280 281 282 283 282 281 280 280 280 278 275 273 271 270 268 266 265 264 262 261 260 259 258 258 259 260
266 269 269 268 268 270 270 271 271 271 270 271 272 274 276 278 279 280 281 283 283 283 285 284 283 281 280 279 278 276 275 272 270 268 266 266 263 262 260 259 258 258 259 260
266 267 268 268 269 272 274 273 272 272 271 272 274 276 278 280 281 281 282 283 282 283 284 284 285 283 281 280 279 278 278 274 272 270 268 266 264 262 260 258 257 257 259 260
265 266 267 268 268 271 273 273 272 273 275 275 277 279 280 281 282 281 282 283 283 285 284 283 284 284 283 281 282 281 279 276 273 271 268 265 263 261 259 258 258 259 259 259
264 266 267 268 268 271 273 272 272 274 275 276 278 280 282 282 283 282 283 283 284 285 285 284 285 284 283 282 281 281 281 278 275 271 267 264 263 262 260 260 260 261 260 260
263 266 267 269 270 271 271 272 273 274 275 276 278 281 282 283 284 285 284 284 285 287 287 286 285 283 281 281 281 281 281 278 275 271 267 264 263 262 261 261 261 262 261 261
263 265 267 268 268 269 270 272 274 275 274 276 278 281 282 284 285 287 286 285 286 288 288 288 286 285 283 282 281 281 281 278 274 272 269 265 263 263 262 262 261 261 261 261
266 267 268 268 269 270 271 273 274 275 275 275 277 280 282 283 285 286 286 286 288 289 289 289 290 290 288 285 282 281 281 280 276 273 270 267 264 263 263 263 263 262 261 261
269 269 268 269 271 273 273 273 273 274 275 276 278 280 282 284 284 284 286 287 290 291 291 291 291 292 290 286 284 282 282 280 278 274 270 267 265 265 267 266 264 263 263 261
Height
5688 5690 5690 5692 5692 5693 5694 5695 5697 5698 5699 5700 5701 5703 5705 5705 5707 5709 5711 5712 5714 5715 5717 5718 5719 5720 5721 5723 5724 5725 5727 5729 5731 5733 5736 5738 5741 5743 5745 5747 5748 5751 5752 5754
5681 5682 5683 5682 5683 5684 5685 5686 5687 5688 5689 5689 5690 5692 5694 5695 5697 5698 5700 5701 5703 5704 5706 5707 5708 5709 5710 5712 5713 5715 5716 5718 5720 5722 5724 5727 5729 5731 5733 5735 5737 5739 5741 5743
5672 5674 5674 5674 5674 5675 5676 5677 5678 5678 5679 5679 5680 5682 5683 5685 5686 5687 5689 5690 5692 5694 5695 5696 5697 5698 5699 5700 5702 5703 5705 5707 5709 5711 5713 5715 5717 5719 5721 5724 5725 5727 5729 5731
5664 5665 5665 5665 5666 5666 5667 5668 5668 5668 5668 5669 5670 5670 5674 5674 5675 5677 5678 5679 5681 5682 5684 5685 5685 5687 5688 5689 5691 5692 5694 5696 5697 5699 5701 5703 5705 5708 5710 5712 5713 5715 5717 5719
5656 5656 5656 5657 5658 5657 5658 5658 5659 5659 5658 5659 5660 5660 5664 5664 5666 5667 5668 5668 5670 5671 5672 5673 5674 5675 5677 5678 5680 5681 5682 5684 5685 5687 5689 5691 5693 5695 5697 5699 5701 5703 5704 5706
5648 5648 5648 5648 5648 5648 5648 5649 5649 5649 5649 5650 5651 5650 5653 5655 5656 5657 5658 5658 5659 5660 5661 5662 5663 5664 5665 5667 5668 5669 5670 5672 5673 5675 5676 5678 5680 5682 5684 5686 5688 5690 5691 5693
5639 5639 5639 5639 5639 5640 5640 5641 5640 5639 5639 5640 5642 5641 5645 5646 5647 5647 5648 5648 5648 5649 5650 5651 5652 5653 5654 5655 5656 5657 5658 5659 5660 5662 5664 5665 5667 5669 5671 5673 5674 5676 5678 5679
5630 5631 5632 5631 5632 5632 5632 5633 5633 5632 5631 5632 5632 5633 5637 5637 5637 5637 5637 5637 5637 5638 5639 5640 5641 5642 5643 5644 5645 5646 5646 5647 5648 5649 5651 5652 5654 5655 5657 5659 5660 5662 5664 5665
5622 5623 5623 5623 5623 5624 5623 5624 5625 5624 5622 5623 5623 5625 5627 5627 5627 5627 5627 5627 5627 5628 5628 5629 5630 5631 5631 5632 5633 5634 5635 5635 5636 5637 5638 5639 5641 5642 5644 5645 5646 5648 5650 5651
5613 5613 5615 5614 5615 5615 5616 5616 5616 5615 5614 5614 5615 5616 5619 5618 5618 5618 5617 5617 5617 5617 5617 5618 5618 5619 5619 5620 5621 5622 5622 5623 5624 5624 5625 5626 5628 5629 5630 5631 5633 5634 5635 5637
5605 5605 5606 5606 5606 5607 5608 5609 5608 5607 5607 5607 5606 5611 5610 5610 5609 5608 5608 5607 5607 5606 5606 5606 5606 5607 5607 5608 5608 5609 5610 5610 5611 5612 5612 5613 5615 5615 5616 5617 5618 5620 5621 5623
5598 5597 5597 5598 5599 5599 5600 5600 5600 5600 5600 5599 5599 5604 5601 5601 5600 5599 5598 5597 5596 5596 5595 5595 5595 5595 5595 5595 5596 5596 5596 5597 5598 5598 5599 5600 5601 5601 5602 5603 5604 5606 5607 5609
5590 5590 5590 5590 5592 5592 5591 5592 5592 5592 5592 5591 5591 5596 5593 5591 5590 5589 5588 5587 5587 5586 5585 5584 5584 5583 5583 5583 5583 5583 5584 5584 5585 5585 5586 5586 5587 5588 5589 5590 5591 5592 5593 5595
5583 5583 5584 5584 5583 5584 5584 5585 5584 5584 5583 5584 5585 5586 5585 5582 5581 5580 5579 5578 5577 5576 5575 5574 5573 5572 5572 5571 5571 5571 5571 5571 5571 5572 5572 5573 5574 5575 5575 5576 5577 5579 5580 5583
5576 5576 5576 5576 5575 5576 5576 5576 5576 5576 5576 5576 5577 5577 5577 5574 5572 5571 5570 5569 5568 5567 5565 5564 5563 5561 5561 5560 5560 5559 5559 5559 5559 5559 5559 5560 5561 5561 5562 5563 5564 5566 5567 5569
5569 5569 5569 5569 5568 5568 5568 5569 5568 5568 5568 5568 5568 5568 5567 5565 5564 5563 5561 5560 5559 5557 5556 5554 5553 5551 5550 5549 5548 5548 5547 5547 5546 5546 5546 5546 5547 5548 5549 5550 5551 5552 5554 5556
5562 5563 5562 5562 5561 5561 5562 5563 5562 5561 5561 5560 5560 5561 5559 5557 5556 5554 5553 5551 5550 5548 5547 5545 5543 5541 5540 5539 5538 5537 5536 5535 5534 5533 5533 5534 5534 5535 5536 5537 5538 5540 5541 5542
5556 5556 5555 5555 5555 5555 5558 5556 5555 5554 5553 5552 5552 5552 5551 5549 5548 5546 5544 5543 5541 5539 5538 5536 5534 5532 5530 5529 5528 5526 5525 5524 5522 5522 5521 5521 5522 5523 5524 5525 5526 5528 5529 5530
5549 5549 5548 5548 5547 5548 5549 5549 5547 5546 5547 5546 5545 5544 5543 5541 5540 5539 5536 5534 5533 5531 5529 5527 5525 5523 5521 5519 5518 5516 5514 5513 5511 5511 5510 5510 5511 5512 5512 5514 5515 5516 5517 5518
5542 5542 5542 5541 5540 5541 5543 5541 5540 5540 5540 5539 5537 5536 5535 5533 5533 5532 5529 5526 5524 5522 5520 5518 5516 5514 5512 5510 5508 5506 5504 5502 5501 5501 5500 5500 5501 5501 5502 5504 5505 5506 5507 5508
5535 5534 5534 5534 5533 5534 5535 5533 5533 5534 5534 5531 5529 5529 5527 5526 5525 5523 5520 5518 5516 5514 5512 5509 5507 5505 5503 5501 5498 5496 5495 5493 5492 5492 5491 5491 5492 5492 5493 5494 5495 5496 5497 5498
5528 5527 5527 5527 5526 5529 5527 5526 5526 5526 5524 5523 5522 5521 5519 5518 5516 5514 5512 5509 5507 5505 5503 5500 5498 5496 5494 5491 5489 5488 5486 5485 5483 5483 5482 5482 5483 5483 5484 5485 5485 5486 5487 5488
5520 5521 5520 5521 5522 5520 5519 5518 5518 5517 5516 5515 5514 5513 5512 5510 5508 5506 5504 5501 5499 5497 5494 5492 5489 5487 5485 5483 5481 5480 5478 5476 5475 5474 5474 5474 5474 5475 5475 5476 5476 5477 5477 5478
5513 5513 5512 5513 5513 5512 5511 5510 5510 5510 5509 5508 5507 5506 5504 5502 5500 5498 5496 5494 5492 5489 5486 5484 5481 5478 5476 5474 5473 5471 5470 5468 5467 5466 5466 5466 5466 5466 5466 5467 5467 5468 5468 5469
5506 5505 5505 5505 5505 5504 5504 5503 5503 5502 5501 5500 5499 5498 5497 5495 5493 5491 5489 5487 5484 5482 5479 5476 5474 5471 5469 5467 5465 5464 5462 5461 5460 5459 5458 5458 5458 5458 5458 5458 5458 5459 5459 5459
5499 5498 5498 5498 5498 5497 5497 5496 5495 5495 5494 5493 5492 5491 5489 5488 5486 5484 5482 5480 5478 5475 5472 5470 5467 5464 5462 5460 5458 5457 5456 5454 5453 5451 5450 5450 5450 5450 5450 5450 5450 5450 5450 5451